Weather History for Fort Sevcenko, Kazakhstan

Change the Weather History Date:

Wednesday, February 20, 2013

  Actual Average Record
Temperature  
Mean Temperature 39 °F -  
Max Temperature 46 °F - - ()
Min Temperature 32 °F - - ()
Degree Days  
Heating Degree Days 26    
Moisture  
Dew Point 28 °F    
Average Humidity 68    
Maximum Humidity 87    
Minimum Humidity 34    
Precipitation  
Precipitation 0.00 in - - ()
Sea Level Pressure  
Sea Level Pressure 30.20 in    
Wind  
Wind Speed 9 mph ()    
Max Wind Speed 18 mph    
Max Gust Speed -    
Visibility 6.0 miles    
Events      
T = Trace of Precipitation, MM = Missing Value Source: Averaged Metar Reports

Daily Weather History Graph

Daily Weather History Graph

Search for Another Location

Airport:

Trip Planner

Search our weather history database for the weather conditions in past years. The results will help you decide how hot, cold, wet, or windy it might be!

Date:

Astronomy

Feb. 20, 2013 Rise Set
Actual Time 8:27 AM AQTT 7:12 PM AQTT
Civil Twilight 7:57 AM AQTT 7:41 PM AQTT
Nautical Twilight 7:24 AM AQTT 8:14 PM AQTT
Astronomical Twilight 6:51 AM AQTT 8:48 PM AQTT
Moon 2:07 PM AQTT (2/20) 4:35 AM AQTT (2/20)
Length of Visible Light 11h 43m
Length of Day
10h 44m
Waxing Gibbous, 72% of the Moon is Illuminated
Feb 20
Waxing Gibbous
Feb 26
Full
Mar 5
Last Quarter
Mar 12
New
Mar 19
First Quarter

Hourly Weather History & Observations

Time (AQTT) Temp. Windchill Dew Point Humidity Pressure Visibility Wind Dir Wind Speed Gust Speed Precip Events Conditions
12:00 AM 35.6 °F 28.7 °F 30.2 °F 81% 30.21 in - NE 8.9 mph - N/A   Clear
12:30 AM 33.8 °F 26.5 °F 30.2 °F 87% 30.21 in - NE 8.9 mph - N/A   Clear
1:00 AM 33.8 °F 26.5 °F 28.4 °F 81% 30.21 in - NE 8.9 mph - N/A   Clear
1:30 AM 32.0 °F 24.3 °F 26.6 °F 80% 30.21 in - ENE 8.9 mph - N/A   Clear
2:00 AM 38 °F - 32 °F 72% 30.21 in 6 mi NE 4.5 mph - -   Mostly Cloudy
2:00 AM 32.0 °F 24.3 °F 26.6 °F 80% 30.21 in - NE 8.9 mph - N/A   Clear
2:30 AM 30.2 °F 22.1 °F 26.6 °F 86% 30.21 in - ENE 8.9 mph - N/A   Clear
3:00 AM 32.0 °F 23.2 °F 26.6 °F 80% 30.21 in - NE 11.2 mph - N/A   Clear
3:30 AM 32.0 °F 23.2 °F 28.4 °F 87% 30.21 in - ENE 11.2 mph - N/A   Clear
4:00 AM 32.0 °F 23.2 °F 28.4 °F 87% 30.21 in - ENE 11.2 mph - N/A   Clear
4:30 AM 33.8 °F 26.5 °F 28.4 °F 81% 30.21 in - East 8.9 mph - N/A   Clear
5:30 AM 33.8 °F 25.4 °F 28.4 °F 81% 30.21 in - East 11.2 mph - N/A   Clear
6:00 AM 33.8 °F 24.5 °F 28.4 °F 81% 30.21 in - East 13.4 mph - N/A   Clear
6:30 AM 33.8 °F 25.4 °F 28.4 °F 81% 30.21 in - East 11.2 mph - N/A   Clear
7:00 AM 32.0 °F 23.2 °F 28.4 °F 87% 30.21 in - East 11.2 mph - N/A   Clear
7:30 AM 32.0 °F 24.3 °F 26.6 °F 80% 30.21 in - East 8.9 mph - N/A   Clear
8:00 AM 39 °F - 32 °F 67% 30.21 in 6 mi East 6.7 mph - -   Mostly Cloudy
8:00 AM 30.2 °F 22.1 °F 26.6 °F 86% 30.21 in - East 8.9 mph - N/A   Clear
8:30 AM 30.2 °F 22.1 °F 26.6 °F 86% 30.21 in - ENE 8.9 mph - N/A   Clear
9:00 AM 30.2 °F 20.9 °F 26.6 °F 86% 30.21 in - ENE 11.2 mph - N/A   Clear
9:30 AM 33.8 °F 25.4 °F 28.4 °F 81% 30.24 in - East 11.2 mph - N/A   Clear
10:00 AM 35.6 °F 27.7 °F 28.4 °F 75% 30.24 in - East 11.2 mph - N/A   Clear
10:30 AM 37.4 °F 28.3 °F 28.4 °F 70% 30.24 in - East 15.7 mph - N/A   Clear
11:00 AM 39 °F - 28 °F 54% 30.24 in 6 mi NE 4.5 mph - -   Clear
11:00 AM 39.2 °F 30.6 °F 26.6 °F 61% 30.24 in - East 15.7 mph - N/A   Clear
11:30 AM 41.0 °F 32.3 °F 26.6 °F 57% 30.21 in - East 17.9 mph - N/A   Clear
12:00 PM 41.0 °F 32.9 °F 26.6 °F 57% 30.21 in - ESE 15.7 mph - N/A   Clear
12:30 PM 42.8 °F 35.9 °F 26.6 °F 53% 30.21 in - ESE 13.4 mph - N/A   Clear
1:00 PM 44.6 °F 37.6 °F 24.8 °F 46% 30.21 in - ESE 15.7 mph - N/A   Clear
1:30 PM 46.4 °F 39.9 °F 24.8 °F 43% 30.21 in - SE 15.7 mph - N/A   Clear
2:00 PM 45 °F - 29 °F 41% 30.22 in 6 mi NE 11.2 mph - -   Clear
2:00 PM 44.6 °F 37.6 °F 24.8 °F 46% 30.21 in - SE 15.7 mph - N/A   Clear
2:30 PM 46.4 °F 40.5 °F 24.8 °F 43% 30.18 in - SE 13.4 mph - N/A   Clear
3:00 PM 46.4 °F 40.5 °F 23.0 °F 40% 30.18 in - SE 13.4 mph - N/A   Clear
3:30 PM 48.2 °F - 23.0 °F 37% 30.18 in - SE 13.4 mph - N/A   Clear
4:00 PM 48.2 °F - 21.2 °F 34% 30.18 in - ESE 13.4 mph - N/A   Clear
4:30 PM 48.2 °F - 23.0 °F 37% 30.18 in - SE 13.4 mph - N/A   Clear
5:00 PM 44 °F - 31 °F 49% 30.19 in 6 mi WNW 6.7 mph - -   Clear
5:00 PM 48.2 °F - 21.2 °F 34% 30.18 in - SE 13.4 mph - N/A   Clear
5:30 PM 46.4 °F 41.2 °F 23.0 °F 40% 30.18 in - ESE 11.2 mph - N/A   Clear
6:00 PM 44.6 °F 39.8 °F 32.0 °F 61% 30.18 in - SSW 8.9 mph - N/A   Clear
6:30 PM 44.6 °F 42.3 °F 30.2 °F 57% 30.18 in - SW 4.5 mph - N/A   Clear
7:00 PM 42.8 °F 38.7 °F 32.0 °F 66% 30.18 in - SW 6.7 mph - N/A   Clear
7:30 PM 39.2 °F 36.0 °F 32.0 °F 75% 30.18 in - SW 4.5 mph - N/A   Clear
8:00 PM 40 °F - 32 °F 64% 30.19 in 6 mi NNE 2.2 mph - -   Clear
8:00 PM 39.2 °F 34.4 °F 32.0 °F 75% 30.18 in - SW 6.7 mph - N/A   Clear
8:30 PM 39.2 °F - 32.0 °F 75% 30.18 in - Calm Calm - N/A   Clear
9:00 PM 35.6 °F - 30.2 °F 81% 30.18 in - Calm Calm - N/A   Clear
9:30 PM 32.0 °F 27.6 °F 28.4 °F 87% 30.18 in - East 4.5 mph - N/A   Clear
10:00 PM 35.6 °F 30.0 °F 30.2 °F 81% 30.18 in - ESE 6.7 mph - N/A   Clear
10:30 PM 35.6 °F 28.7 °F 28.4 °F 75% 30.18 in - ESE 8.9 mph - N/A   Clear
11:00 PM 35 °F - 27 °F 63% 30.19 in 6 mi North 6.7 mph - -  
11:00 PM 32.0 °F 25.7 °F 28.4 °F 87% 30.18 in - ESE 6.7 mph - N/A   Clear
11:30 PM 32.0 °F 25.7 °F 28.4 °F 87% 30.18 in 6.2 mi ESE 6.7 mph - N/A   Scattered Clouds